Regional Weather Roundup
Issued by NWS

Home | Current Version | Previous Version | Graphics & Text | Print | Product List | Glossary On
Versions: 1 2 3 4 5 6 7 8 9 10 11 12 13 14 15 16 17 18 19 20 21 22 23 24 25 26 27 28 29 30 31 32 33 34 35 36 37 38 39 40 41 42 43 44 45 46 47 48 49 50
045
ASUS43 KLMK 101702
RWRKY
KENTUCKY REGIONAL WEATHER ROUNDUP
NATIONAL WEATHER SERVICE LOUISVILLE KY
1200 PM EST WED FEB 10 2016

NOTE "FAIR" INDICATES FEW OR NO CLOUDS BELOW 12,000 FEET
WITH NO SIGNIFICANT WEATHER AND/OR OBSTRUCTIONS TO VISIBILITY.

KYZ001>023-026-027-061>063-070>075-101800-
WESTERN AND SOUTH CENTRAL KENTUCKY

CITY           SKY/WX    TMP DP  RH WIND       PRES   REMARKS
PADUCAH        MOSUNNY   23   8  52 W6        30.23S WCI  16
HENDERSON      MOSUNNY   21   9  58 W12       30.21S WCI   9
OWENSBORO      PTSUNNY   21   9  60 NW14      30.20S WCI   8
HOPKINSVILLE   SUNNY     22  10  61 NW8       30.21S WCI  12
BOWLING GREEN  PTSUNNY   21   8  57 W12G20    30.20R WCI   9
GLASGOW        NOT AVBL
$$

KYZ024-025-028>034-038-045-046-053-101800-
NORTH CENTRAL KENTUCKY

CITY           SKY/WX    TMP DP  RH WIND       PRES   REMARKS
LOUISVILLE/SDF PTSUNNY   18   6  59 W16       30.14R WCI   3
LOUISVILLE/LOU CLOUDY    18   6  59 W13G29    30.14R WCI   5
FORT KNOX      CLOUDY    18   6  59 W12G21    30.12R WCI   5
$$

KYZ035>037-039>044-047>052-055>060-089>105-101800-
NORTHEAST KENTUCKY

CITY           SKY/WX    TMP DP  RH WIND       PRES   REMARKS
LEXINGTON      FLURRIES  17   7  64 W17G23    30.07R WCI   1
COVINGTON      CLOUDY    17   8  67 W18       30.03R WCI   1
FRANKFORT      CLOUDY    17   5  59 W13G20    30.08R WCI   4
$$

KYZ054-064>069-076>088-106>120-101800-
SOUTHEAST KENTUCKY

CITY           SKY/WX    TMP DP  RH WIND       PRES   REMARKS
JACKSON        CLOUDY    18   5  57 W8G18     30.00S WCI   8
LONDON         FLURRIES  17   7  64 W17       30.07R WCI   1
SOMERSET       NOT AVBL
MIDDLESBORO    CLOUDY    23   9  55 W8        30.07S WCI  14
MONTICELLO     FLURRIES  17   8  67 W23       30.14R WCI  -1
$$





USA.gov is the U.S. government's official web portal to all federal, state and local government web resources and services.